S57D-6 Weather Reports


time (UTC)temp
C
wind
direction
speed
KPH
gust
KPH
rain 1hr
cm
rain 24hr
cm
rain mn
cm
humidity
%
barometer
mb
20260507174938 17 202 1.6 6.4 0.00 0.15 0.00 58 1012.3
20260507174442 17 270 3.2 4.8 0.00 0.15 0.00 58 1012.2
20260507173937 17 135 4.8 4.8 0.00 0.15 0.00 57 1012.2
20260507172937 17 270 8.0 8.0 0.00 0.15 0.00 57 1012.0
20260507172439 17 225 1.6 3.2 0.00 0.15 0.00 58 1011.9
20260507171936 17 292 3.2 9.7 0.00 0.15 0.00 59 1011.8
20260507171437 17 180 9.7 9.7 0.00 0.15 0.00 61 1011.8
20260507170936 18 270 0.0 4.8 0.00 0.15 0.00 63 1011.7
20260507170439 18 247 1.6 1.6 0.00 0.15 0.00 63 1011.7
20260507165935 18 225 1.6 1.6 0.00 0.15 0.00 62 1011.6
20260507164934 18 337 0.0 9.7 0.00 0.15 0.00 62 1011.7
20260507164444 18 202 3.2 11.3 0.00 0.15 0.00 61 1011.6
20260507163934 19 202 11.3 11.3 0.00 0.15 0.00 60 1011.2
20260507163435 19 225 3.2 9.7 0.00 0.15 0.00 59 1011.2
20260507162933 20 247 4.8 4.8 0.00 0.15 0.00 58 1011.2
20260507162437 20 292 3.2 3.2 0.00 0.15 0.00 57 1011.2
20260507161933 20 225 1.6 4.8 0.00 0.15 0.00 56 1011.3
20260507161436 21 315 0.0 9.7 0.00 0.15 0.00 56 1011.2
20260507160932 21 225 9.7 9.7 0.00 0.15 0.00 55 1011.2
20260507155932 21 247 4.8 4.8 0.00 0.15 0.00 53 1011.3
20260507154931 21 315 3.2 3.2 0.00 0.15 0.00 52 1011.2
20260507153931 22 247 0.0 3.2 0.00 0.15 0.00 50 1010.9
20260507153433 22 247 3.2 3.2 0.00 0.15 0.00 48 1010.8
20260507152930 22 247 1.6 3.2 0.00 0.15 0.00 48 1010.7
20260507152431 22 247 0.0 8.0 0.00 0.15 0.00 48 1010.5
20260507151929 22 292 4.8 4.8 0.00 0.15 0.00 48 1010.4
20260507151431 22 292 3.2 6.4 0.00 0.15 0.00 50 1010.4
20260507150929 22 270 0.0 3.2 0.00 0.15 0.00 50 1010.3
20260507145928 22 247 4.8 4.8 0.00 0.15 0.00 48 1010.2
20260507145430 22 247 3.2 4.8 0.00 0.15 0.00 48 1010.2
20260507144928 22 247 4.8 4.8 0.00 0.15 0.00 48 1010.3
20260507143927 22 247 0.0 3.2 0.00 0.15 0.00 47 1010.2
20260507143429 22 247 0.0 12.9 0.00 0.15 0.00 48 1010.3
20260507142926 22 202 12.9 12.9 0.00 0.15 0.00 47 1010.2
20260507142429 23 247 0.0 1.6 0.00 0.15 0.00 47 1010.3
20260507141926 23 315 0.0 6.4 0.00 0.15 0.00 46 1010.2
20260507141427 23 315 1.6 9.7 0.00 0.15 0.00 45 1010.2
20260507140925 23 270 9.7 9.7 0.00 0.15 0.00 44 1010.3
20260507140427 23 157 0.0 3.2 0.00 0.15 0.00 45 1010.2
20260507135925 23 202 3.2 3.2 0.00 0.20 0.00 44 1010.3
20260507135427 23 225 0.0 4.8 0.00 0.20 0.00 45 1010.4
20260507134924 23 337 0.0 8.0 0.00 0.20 0.00 44 1010.3
20260507133924 23 315 3.2 3.2 0.00 0.20 0.00 46 1010.3
20260507132923 23 270 0.0 3.2 0.00 0.20 0.00 45 1010.5
20260507132650 23 225 3.2 6.4 0.00 0.20 0.00 45 1010.4
20260507132425 23 225 3.2 6.4 0.00 0.20 0.00 45 1010.4
20260507131922 23 315 3.2 3.2 0.00 0.20 0.00 47 1010.5
20260507131425 23 247 1.6 1.6 0.00 0.20 0.00 47 1010.7
20260507130922 23 315 1.6 12.9 0.00 0.20 0.00 48 1010.7
20260507130423 23 202 0.0 6.4 0.00 0.20 0.00 47 1010.8
20260507125921 23 292 6.4 6.4 0.00 0.20 0.00 47 1010.7
20260507125425 23 157 1.6 3.2 0.00 0.20 0.00 47 1010.8
20260507124921 23 180 3.2 6.4 0.00 0.20 0.00 49 1011.0
20260507124423 23 292 0.0 3.2 0.00 0.20 0.00 50 1011.0
20260507123920 23 225 0.0 3.2 0.00 0.20 0.00 49 1011.0
20260507123424 23 202 3.2 3.2 0.00 0.20 0.00 50 1011.0
20260507122920 23 202 3.2 3.2 0.00 0.20 0.00 51 1011.1
20260507122423 23 247 3.2 3.2 0.00 0.20 0.00 52 1011.1
20260507121919 22 315 0.0 4.8 0.00 0.20 0.00 52 1011.1
20260507121421 22 45 3.2 3.2 0.00 0.20 0.00 52 1011.1
20260507120918 22 202 1.6 1.6 0.00 0.20 0.00 54 1011.0
20260507120421 22 247 0.0 0.0 0.00 0.20 0.00 53 1011.1
20260507115918 22 292 0.0 0.0 0.00 0.20 0.00 53 1011.1
20260507114917 22 135 0.0 3.2 0.00 0.20 0.00 53 1011.4
20260507114420 22 225 3.2 3.2 0.00 0.20 0.00 54 1011.3
20260507113917 22 315 0.0 3.2 0.00 0.20 0.00 56 1011.6
20260507112916 22 225 3.2 3.2 0.00 0.20 0.00 54 1011.5
20260507111916 22 225 0.0 1.6 0.00 0.20 0.00 59 1011.5
20260507111416 21 315 0.0 0.0 0.00 0.20 0.00 59 1011.6
20260507110915 21 337 0.0 8.0 0.00 0.20 0.00 60 1011.7
20260507105915 21 247 1.6 1.6 0.00 0.20 0.00 61 1011.6
20260507105415 21 225 1.6 1.6 0.00 0.20 0.00 60 1011.7
20260507104914 21 180 0.0 0.0 0.00 0.20 0.00 62 1011.7
20260507103913 21 157 1.6 12.9 0.00 0.20 0.00 62 1011.8
20260507103414 20 0 0.0 3.2 0.00 0.20 0.00 63 1011.9
20260507102913 20 112 1.6 1.6 0.00 0.20 0.00 64 1012.0
20260507102415 20 292 0.0 1.6 0.00 0.20 0.00 64 1011.9
20260507101912 20 157 1.6 6.4 0.00 0.20 0.00 64 1012.0
20260507101416 20 202 4.8 9.7 0.00 0.20 0.00 65 1012.0
20260507100912 20 270 0.0 0.0 0.00 0.20 0.00 69 1012.0
20260507100414 20 180 0.0 1.6 0.00 0.20 0.00 68 1012.0
20260507095911 19 315 0.0 1.6 0.00 0.25 0.00 69 1012.1
20260507095413 19 247 1.6 1.6 0.00 0.25 0.00 69 1012.0
20260507094911 19 157 0.0 0.0 0.00 0.25 0.00 68 1012.0
20260507094413 19 112 0.0 0.0 0.00 0.25 0.00 69 1012.0
20260507093910 19 292 0.0 1.6 0.00 0.25 0.00 69 1012.2
20260507093412 20 157 1.6 1.6 0.00 0.25 0.00 70 1012.2
20260507092909 20 292 0.0 0.0 0.00 0.25 0.00 70 1012.1
20260507091909 20 315 0.0 0.0 0.00 0.25 0.00 72 1012.1
20260507091410 19 315 0.0 4.8 0.00 0.25 0.00 72 1012.1
20260507090908 19 90 1.6 4.8 0.00 0.25 0.00 71 1012.2
20260507090411 19 135 1.6 3.2 0.00 0.25 0.00 71 1012.3
20260507085908 19 337 0.0 0.0 0.00 0.41 0.00 73 1012.2
20260507085408 18 292 0.0 0.0 0.00 0.41 0.00 75 1012.2
20260507084907 18 90 0.0 0.0 0.00 0.41 0.00 74 1012.4
20260507084409 18 135 0.0 0.0 0.00 0.41 0.00 75 1012.3
20260507083907 18 90 0.0 0.0 0.00 0.41 0.00 76 1012.3
20260507083409 18 157 0.0 1.6 0.00 0.41 0.00 77 1012.3
20260507082906 18 157 1.6 4.8 0.00 0.41 0.00 77 1012.3
20260507082407 18 135 4.8 4.8 0.00 0.41 0.00 77 1012.4
20260507081905 17 112 0.0 0.0 0.00 0.41 0.00 79 1012.3
20260507080905 16 157 0.0 3.2 0.00 0.41 0.00 82 1012.4
20260507075904 16 202 0.0 3.2 0.00 0.41 0.00 83 1012.5
20260507075408 16 135 0.0 1.6 0.00 0.41 0.00 85 1012.5
20260507074904 16 202 1.6 3.2 0.00 0.41 0.00 86 1012.3
20260507074406 16 157 3.2 3.2 0.00 0.41 0.00 87 1012.4
20260507074133 16 157 0.0 0.0 0.00 0.41 0.00 89 1012.4
20260507073903 16 157 0.0 0.0 0.00 0.41 0.00 89 1012.4
20260507073405 15 157 0.0 1.6 0.00 0.41 0.00 89 1012.3
20260507072903 15 157 1.6 3.2 0.00 0.41 0.00 90 1012.4
20260507072405 15 202 1.6 1.6 0.00 0.41 0.00 91 1012.4
20260507071902 14 112 1.6 1.6 0.00 0.41 0.00 92 1012.4
20260507070901 13 135 0.0 0.0 0.00 0.41 0.00 92 1012.4
20260507070403 13 135 0.0 0.0 0.00 0.41 0.00 92 1012.3
20260507065901 13 315 0.0 0.0 0.00 0.41 0.00 92 1012.3
20260507064900 12 22 1.6 1.6 0.00 0.41 0.00 93 1012.2
20260507064402 12 112 0.0 3.2 0.00 0.41 0.00 93 1012.1
20260507063900 12 0 0.0 0.0 0.00 0.41 0.00 93 1012.2
20260507063618 12 337 0.0 0.0 0.00 0.41 0.00 93 1012.2
20260507063400 12 337 0.0 0.0 0.00 0.41 0.00 93 1012.2
20260507062859 12 0 0.0 0.0 0.00 0.41 0.00 93 1012.3
20260507062400 12 135 0.0 0.0 0.00 0.41 0.00 93 1012.2
20260507061859 12 135 0.0 0.0 0.00 0.41 0.00 93 1012.1
20260507060858 11 22 0.0 0.0 0.00 0.41 0.00 93 1012.0
20260507060400 11 112 0.0 0.0 0.00 0.41 0.00 93 1011.9
20260507055857 11 22 0.0 0.0 0.00 0.41 0.00 93 1011.8
20260507055358 11 22 0.0 0.0 0.00 0.41 0.00 94 1011.9
20260507054857 11 22 0.0 0.0 0.00 0.41 0.00 94 1011.8
20260507053856 11 22 0.0 0.0 0.00 0.41 0.00 94 1011.8
20260507053358 11 67 0.0 0.0 0.00 0.41 0.00 94 1011.6
20260507052856 11 157 0.0 0.0 0.00 0.41 0.00 94 1011.7
20260507051855 11 157 0.0 0.0 0.00 0.41 0.00 93 1011.7
20260507050855 10 202 0.0 0.0 0.00 0.41 0.00 93 1011.5
20260507050355 10 180 0.0 0.0 0.00 0.41 0.00 93 1011.3
20260507045854 10 135 0.0 0.0 0.00 0.41 0.00 93 1011.3
20260507045356 10 112 0.0 0.0 0.00 0.41 0.00 93 1011.4
20260507044853 10 67 0.0 0.0 0.00 0.41 0.00 93 1011.2
20260507044355 10 67 0.0 0.0 0.00 0.41 0.00 93 1011.2
20260507044118 10 67 0.0 0.0 0.00 0.41 0.00 93 1011.1
20260507043853 10 67 0.0 0.0 0.00 0.41 0.00 93 1011.1
20260507043355 10 67 0.0 0.0 0.00 0.41 0.00 93 1011.0
20260507042852 10 22 0.0 0.0 0.00 0.41 0.00 93 1011.1
20260507042354 10 90 0.0 0.0 0.05 0.41 0.00 93 1011.0
20260507041852 10 90 0.0 0.0 0.05 0.41 0.00 93 1011.0
20260507041355 10 22 0.0 0.0 0.05 0.41 0.00 93 1011.0
20260507040851 10 315 0.0 0.0 0.05 0.41 0.00 93 1011.0
20260507040353 10 22 0.0 0.0 0.05 0.41 0.00 93 1010.9
20260507035851 10 22 0.0 0.0 0.05 0.41 0.00 93 1010.9
20260507034850 10 22 0.0 0.0 0.05 0.41 0.00 93 1010.9
20260507034356 10 22 0.0 0.0 0.05 0.41 0.00 93 1010.8
20260507033850 10 157 0.0 0.0 0.05 0.41 0.00 93 1010.8
20260507033353 10 157 0.0 0.0 0.05 0.41 0.00 93 1010.9
20260507032849 10 45 0.0 0.0 0.05 0.41 0.00 93 1010.9
20260507032353 10 0 0.0 0.0 0.00 0.36 0.00 93 1010.7
20260507031848 10 180 0.0 0.0 0.00 0.36 0.00 93 1010.7
20260507030848 10 247 0.0 0.0 0.00 0.36 0.00 93 1010.7
20260507030351 10 247 0.0 0.0 0.00 0.36 0.00 93 1010.8
20260507025847 10 247 0.0 0.0 0.00 0.36 0.00 93 1010.7
20260507024847 10 22 0.0 0.0 0.00 0.36 0.00 93 1010.8
20260507023846 10 22 0.0 0.0 0.00 0.36 0.00 93 1010.7
20260507023349 10 90 0.0 0.0 0.00 0.36 0.00 93 1010.8
20260507022846 10 90 0.0 0.0 0.00 0.36 0.00 93 1010.8
20260507022353 10 22 0.0 0.0 0.00 0.36 0.00 93 1010.8
20260507021845 10 22 0.0 0.0 0.00 0.36 0.00 93 1010.7
20260507020844 11 157 1.6 1.6 0.00 0.36 0.00 92 1010.5
20260507020348 11 180 0.0 0.0 0.00 0.36 0.00 92 1010.6
20260507015844 11 180 0.0 0.0 0.00 0.36 0.00 92 1010.8
20260507015345 10 180 0.0 0.0 0.00 0.36 0.00 92 1010.8
20260507014844 10 202 0.0 0.0 0.00 0.36 0.00 92 1010.7
20260507014348 11 22 0.0 0.0 0.00 0.36 0.00 92 1010.8
20260507013843 11 22 0.0 0.0 0.00 0.36 0.00 92 1010.6
20260507012842 11 22 0.0 0.0 0.00 0.36 0.00 92 1010.8
20260507012352 11 112 0.0 0.0 0.00 0.36 0.00 92 1010.7
20260507011842 11 22 0.0 0.0 0.00 0.36 0.00 92 1010.7
20260507011345 11 22 0.0 0.0 0.00 0.36 0.00 92 1010.7
20260507010841 11 22 0.0 0.0 0.00 0.36 0.00 92 1010.7
20260507005840 11 135 0.0 0.0 0.00 0.36 0.00 92 1010.7
20260507004840 11 90 0.0 0.0 0.00 0.36 0.00 92 1010.7
20260507003839 11 90 0.0 0.0 0.00 0.36 0.00 92 1010.7
20260507003346 11 112 0.0 0.0 0.00 0.36 0.00 92 1010.7
20260507002839 11 112 0.0 0.0 0.00 0.36 0.00 92 1010.9
20260507001838 11 22 0.0 0.0 0.00 0.36 0.00 92 1011.0
20260507001342 11 112 0.0 0.0 0.00 0.36 0.00 91 1010.9
20260507000838 11 22 0.0 0.0 0.00 0.36 0.00 91 1010.8
20260507000350 11 0 0.0 0.0 0.00 0.36 0.00 91 1010.9
20260506235837 12 22 0.0 0.0 0.00 0.36 0.00 91 1010.9
20260506235341 12 22 0.0 0.0 0.00 0.36 0.00 91 1010.9
20260506234836 12 67 0.0 0.0 0.00 0.36 0.00 91 1011.0
20260506233836 12 112 0.0 0.0 0.00 0.36 0.00 90 1011.1
20260506233339 12 112 0.0 0.0 0.00 0.36 0.00 90 1010.9
20260506232835 12 22 0.0 0.0 0.00 0.36 0.00 90 1010.9
20260506231835 12 315 0.0 0.0 0.00 0.36 0.00 90 1011.0
20260506231344 12 22 0.0 0.0 0.00 0.36 0.00 90 1011.1
20260506230834 12 292 0.0 0.0 0.00 0.36 0.00 89 1010.8
20260506225834 12 225 0.0 0.0 0.00 0.36 0.00 90 1011.2
20260506225336 12 202 0.0 0.0 0.00 0.36 0.00 90 1011.2
20260506224833 12 112 0.0 0.0 0.00 0.36 0.00 90 1011.1
20260506224342 12 112 0.0 1.6 0.00 0.36 0.00 90 1011.0
20260506223832 12 225 1.6 1.6 0.00 0.36 0.00 90 1011.1
20260506222917 12 292 0.0 1.6 0.00 0.36 0.00 91 1011.0
20260506222832 12 292 0.0 1.6 0.00 0.36 0.00 91 1011.0
20260506221906 12 225 3.2 3.2 0.00 0.36 0.00 91 1010.9
20260506221831 12 225 3.2 3.2 0.00 0.36 0.00 91 1010.9
20260506221333 12 202 0.0 0.0 0.00 0.36 0.00 91 1010.8
20260506220831 12 247 0.0 0.0 0.00 0.36 0.00 91 1010.8
20260506220416 12 247 0.0 0.0 0.00 0.36 0.00 91 1010.9
20260506220333 12 247 0.0 0.0 0.00 0.36 0.00 91 1010.9
20260506215830 13 180 0.0 0.0 0.00 0.36 0.00 91 1010.6
20260506215332 13 202 0.0 0.0 0.00 0.36 0.00 91 1010.6
20260506214830 13 135 0.0 0.0 0.00 0.36 0.00 91 1010.5
20260506214330 13 45 0.0 0.0 0.00 0.36 0.00 91 1010.4
20260506213829 13 135 0.0 0.0 0.00 0.36 0.00 91 1010.5
20260506213330 13 135 0.0 0.0 0.00 0.36 0.00 91 1010.7
20260506212828 13 292 0.0 0.0 0.00 0.36 0.00 91 1010.7
20260506212329 13 22 0.0 0.0 0.00 0.36 0.00 91 1010.7
20260506211828 13 22 0.0 0.0 0.00 0.36 0.00 91 1010.6
20260506211330 13 180 0.0 0.0 0.00 0.36 0.00 91 1010.6
20260506210828 13 112 0.0 0.0 0.00 0.36 0.00 91 1010.6
20260506210328 13 247 0.0 0.0 0.00 0.36 0.00 91 1010.6
20260506205827 13 315 0.0 0.0 0.05 0.36 0.00 91 1010.6
20260506205329 13 112 0.0 0.0 0.05 0.36 0.00 91 1010.3
20260506204826 13 90 0.0 0.0 0.05 0.36 0.00 91 1010.5
20260506204328 13 90 0.0 0.0 0.05 0.36 0.00 91 1010.6
20260506203826 13 0 0.0 1.6 0.05 0.36 0.00 91 1010.6
20260506203326 13 22 1.6 1.6 0.05 0.36 0.00 90 1010.2
20260506202825 13 315 0.0 0.0 0.05 0.36 0.00 90 1010.2
20260506202326 13 112 0.0 0.0 0.05 0.36 0.00 90 1010.3
20260506201824 13 135 0.0 0.0 0.05 0.36 0.00 89 1010.2
20260506200824 13 112 0.0 0.0 0.05 0.36 0.00 89 1010.2
20260506200325 13 90 0.0 0.0 0.10 0.36 0.00 89 1010.2
20260506195823 13 157 0.0 0.0 0.05 0.30 0.00 89 1010.2
20260506195324 13 225 0.0 0.0 0.05 0.30 0.00 89 1010.1
20260506194823 13 202 0.0 0.0 0.05 0.30 0.00 88 1010.1
20260506194323 13 270 0.0 0.0 0.05 0.30 0.00 88 1010.0
20260506193822 14 315 0.0 0.0 0.05 0.30 0.00 88 1009.9
20260506193323 14 315 0.0 0.0 0.05 0.30 0.00 88 1009.8
20260506192822 14 292 0.0 0.0 0.05 0.30 0.00 88 1009.8
20260506192324 14 45 0.0 0.0 0.05 0.30 0.00 88 1009.8
20260506191821 14 315 0.0 0.0 0.05 0.30 0.00 88 1009.9
20260506190820 14 315 0.0 0.0 0.00 0.25 0.00 88 1009.9
20260506190322 14 270 0.0 0.0 0.00 0.25 0.00 88 1009.8
20260506185820 14 270 0.0 0.0 0.00 0.25 0.00 88 1009.9
20260506185321 14 292 0.0 0.0 0.00 0.25 0.00 88 1009.9
20260506184819 14 45 0.0 0.0 0.00 0.25 0.00 88 1009.7
20260506184508 14 45 0.0 0.0 0.00 0.25 0.00 88 1009.4
20260506184320 14 45 0.0 0.0 0.00 0.25 0.00 88 1009.4
20260506183819 15 112 0.0 0.0 0.00 0.25 0.00 88 1009.1
20260506183354 15 247 0.0 0.0 0.00 0.25 0.00 87 1009.2
20260506183321 15 247 0.0 0.0 0.00 0.25 0.00 87 1009.2
20260506182818 15 90 0.0 0.0 0.00 0.25 0.00 87 1009.1
20260506182320 15 0 0.0 0.0 0.00 0.25 0.00 87 1009.0
20260506181818 15 22 0.0 0.0 0.00 0.25 0.00 87 1009.0
20260506180817 15 22 0.0 0.0 0.00 0.25 0.00 87 1009.0
20260506180318 15 22 0.0 1.6 0.00 0.25 0.00 86 1008.8
20260506175816 15 45 0.0 0.0 0.00 0.25 0.00 85 1008.8
20260506175317 15 45 0.0 0.0 0.00 0.25 0.00 84 1008.8